DELTA 1 DEB, 21319

Orbit data source: Space-Track

DELTA 1 DEB, 21319 is space debris in SSO originally from a launch on Thu, 12 Jun 1975 UTC launched from the Air Force Western Test Range (AFWTR). Debris objects in space refer to the collection of defunct objects orbiting the Earth. Examples of debris include non-operational satellites, rocket bodies, and fragments generated from explosions, collisions, or faulty payload assembly.

Loading next visibility...
Identifier
21319, 1975-052AM
Orbit
SSO
Last TLE update
1 day ago
Origin
Manufacturer
Unknown
Mission
Spacecraft
Bus & Motor
Unknown
Mass
Unknown
Launch date (UTC)
1975-06-12 (50 years ago)
Launch vehicle
Unknown
Launch site
Air Force Western Test Range (AFWTR)
Object type
Payload
Rocket body
Debris
Shape & HBR
Unknown
Radar Cross Section
Small (<0.1 m²)

Expand to show TLE details & history

TLE from 1 day ago
0 DELTA 1 DEB
1 21319U 75052AM  25181.12721209  .00000232  00000-0  71844-3 0  9990
2 21319  99.6448  20.7348 0234728 292.0511 195.8453 13.06711005624223
Epoch: 2025-06-30T03:03Z
TLE epoch observation values (Epoch: 2025-06-30T03:03:11.124Z)
Latitude
51.85587°
Longitude
-111.06824°
Altitude
1,416.439 km
Speed
7.076 km/s
True Right ascension
14h 12m 40s
True Declination
51° 42' 10"
Sunlit
Object was in daylight at epoch
Visualization orbit readout
Latitude
75.08832°
Longitude
-83.05449°
Altitude
1,425.639 km
Speed
7.071 km/s
Apparent Right ascension
07h 18m 08s
Apparent Declination
46° 02' 59"
Sunlit
Object is in daylight
Visualization observer readout
Local Sidereal Time
18:06:36
Azimuth
347.681° N
Elevation
-2.558°
Doppler factor
1
Orbital elements
Apogee altitude
1,411.924 km
Perigee altitude
1,054.602 km
Semi-major axis
7,611.4 km
Eccentricity
0.02347
Inclination
99.6448°
RAAN
20.7348°
Arg. of periapsis
292.0511°
True anomaly
Unknown
Mean anomaly
195.8453°
Eccentric anomaly
Unknown
Mean motion
3.26848 °/min
Orbital period
110.14 mins
BSTAR
0.00071844
Loading maneuver chart data...
Loading SW <> Apogee altitude chart data...
Loading historical data...
Loading historical data...
Loading historical data...
Loading historical data...
Loading historical data...
Loading historical data...
Loading historical data...

DELTA 1 DEB Visibility forecast

Observer location: undefined°, undefined°

Span
Click to sort rows by Start time (UTC) header in descending order
Start Az.
Max El. time (UTC)
Max El. Az.
Max El.
End time (UTC)
End Az.
10 mins2025-07-01 11:37:48.190Z101.396° ESE2025-07-01 11:42:48.190Z55.168° ENE22.049°2025-07-01 11:47:48.190Z12.232° NNE
13 mins2025-07-01 13:24:48.190Z173.439° S2025-07-01 13:30:48.190Z288.384° WNW43.624°2025-07-01 13:37:48.190Z341.855° N
4 mins2025-07-01 15:18:48.190Z264.136° W2025-07-01 15:19:48.190Z272.247° WNW11.712°2025-07-01 15:22:48.190Z295.74° NW
12 mins2025-07-02 00:58:48.190Z42.167° NE2025-07-02 01:03:48.190Z87.358° E26.283°2025-07-02 01:10:48.190Z150.691° SSE
14 mins2025-07-02 02:46:48.190Z4.421° NNE2025-07-02 02:52:48.190Z301.739° NW40.646°2025-07-02 03:00:48.190Z214.64° SW
5 mins2025-07-02 04:37:48.190Z327.304° NNW2025-07-02 04:39:48.190Z312.172° NW12.696°2025-07-02 04:42:48.190Z289.627° WNW
|